Regional Weather Roundup
Issued by NWS

Home | Current Version | Previous Version | Graphics & Text | Print | Product List | Glossary On
Versions: 1 2 3 4 5 6 7 8 9 10 11 12 13 14 15 16 17 18 19 20 21 22 23 24 25 26 27 28 29 30 31 32 33 34 35 36 37 38 39 40 41 42 43 44 45 46 47 48 49 50
000
ASUS43 KIND 212009
RWRIN

WEATHER ROUNDUP FOR INDIANA
NATIONAL WEATHER SERVICE INDIANAPOLIS IN
300 PM EST SUN JAN 21 2018

NOTE: "FAIR" INDICATES FEW OR NO CLOUDS BELOW 12,000 FEET WITH NO
SIGNIFICANT WEATHER AND/OR OBSTRUCTIONS TO VISIBILITY.

* - STATION DOES NOT REPORT WEATHER SUCH AS PRECIPITATION OR FOG.

+ - STATION NOT QUALITY CONTROLLED BY THE NATIONAL WEATHER SERVICE.
    USE DATA WITH CAUTION...ESPECIALLY DEWPOINT AND RELATIVE
    HUMIDITY OBSERVATIONS.

INZ001>003-010>013-019-020-212100-
NORTHWEST INDIANA

CITY           SKY/WX    TMP DP  RH WIND       PRES   REMARKS
GARY /AIRPORT/ CLOUDY    46  45  93 VRB5      29.91F FOG
KNOX *+        CLOUDY    41  41 100 S7        29.93F VSB 1/2
LA PORTE +     FOG       38  38 100 SE3       29.93F VSB<1/4
MICHIGAN CITY+ CLOUDY    43  43 100 S5        29.93F FOG
MONTICELLO +   FOG       46  45  95 S5        29.93F VSB 1/4
RENSSELAER +   FOG       43  39  87 S6        29.92F VSB 1/4
VALPARAISO     FOG       43  42  97 S5        29.92F VSB<1/4

$$

LMZ046-743>745-212100-
SOUTHERN LAKE MICHIGAN

STATION/POSITION TIME  TEMP    WIND        PRES    WAVE
                       AIR SEA DIR/SP/G            HT
                 (UTC) (F)     (DEG/KT/KT) (MB)    (FT)
BURNS HARBOR     1940   43     190/  8/ 12 1013.5F
MICHIGAN CITY    1940   42     150/  9/ 10   N/A

$$

INZ004-005-014>016-021>024-212100-
NORTH CENTRAL INDIANA

CITY           SKY/WX    TMP DP  RH WIND       PRES   REMARKS
ELKHART        FOG       41  41 100 CALM      29.94F VSB 1/4
GOSHEN         FOG       43  42  97 S5        29.94F VSB<1/4
LOGANSPORT +   FOG       43  43 100 S6        29.95F VSB<1/4
PERU/GRISSOM   FOG       47  47 100 S10       29.94F VSB 7/8
ROCHESTER +    FOG       45 N/A N/A S6        29.94F VSB<1/4
SOUTH BEND     FOG       42  42 100 SE5       29.93F VSB 1/4
WARSAW +       FOG       43  43 100 S3        29.94S VSB 1/2

$$

INZ006>009-017-018-025>027-212100-
NORTHEAST INDIANA

CITY           SKY/WX    TMP DP  RH WIND       PRES   REMARKS
AUBURN +       FOG      N/A N/A N/A S3        29.97S VSB 1/4
FORT WAYNE     DRZL/FOG  45  45 100 SW5       29.97F VSB 1/4
HUNTINGTON +   FOG       45  44  96 S5        29.96S VSB 1/4
KENDALLVILLE + FOG       42  42 100 S3        29.95F VSB<1/4

$$

INZ028-029-035-036-043>045-051>053-212100-
WEST CENTRAL INDIANA

CITY           SKY/WX    TMP DP  RH WIND       PRES   REMARKS
CRAWFORDSVL +  FOG       45  45 100 MISG        N/A  VSB 1/2
GREENCASTLE +  CLOUDY    48  46  93 S6        29.97F FOG
LAFAYETTE      FOG       47  47 100 S6        29.94F VSB 3/4
TERRE HAUTE    CLOUDY    49  47  93 S13       29.96F FOG

$$

INZ030>032-037>040-046>048-054>057-064-065-212100-
CENTRAL INDIANA

CITY           SKY/WX    TMP DP  RH WIND       PRES   REMARKS
COLUMBUS       CLOUDY    50  46  87 S10       30.01F
FISHERS *+     CLOUDY    48  48 100 SW9       29.98F
FRANKFORT +    FOG       49  48  97 S9        29.96F VSB 1/2
GREENWOOD *+   CLOUDY    52  48  87 S9        30.00S
INDIANAPOLIS   CLOUDY    50  48  93 S12       29.99S FOG
-EAGLE CREEK   CLOUDY    49  48  97 S7        29.97F FOG
MARION +       FOG      N/A N/A N/A S10       29.97S VSB 1/4
MT COMFORT *+  CLOUDY    48  48 100 S8        29.99S
SHELBYVILLE      N/A     52  47  83 S12       29.99F
ZIONSVILLE +   FOG       46  46 100 S10       29.97S VSB 1/2

$$

INZ033-034-041-042-049-050-058-059-212100-
EAST CENTRAL INDIANA

CITY           SKY/WX    TMP DP  RH WIND       PRES   REMARKS
MUNCIE         CLOUDY    51  47  86 S8        29.98F
RICHMOND +     CLOUDY    45  45 100 S9        30.01S

$$

INZ060-061-067>069-081>083-085>088-212100-
SOUTHWEST INDIANA

CITY           SKY/WX    TMP DP  RH WIND       PRES   REMARKS
EVANSVILLE     CLOUDY    52  50  93 S10       30.01F
HUNTINGBURG +  CLOUDY    52  48  87 S10       30.02F
WASHINGTON +   CLOUDY    48  47  94 S9        30.00S FOG

$$

INZ062-063-066-070>080-084-089>092-212100-
SOUTH CENTRAL AND SOUTHEAST INDIANA

CITY           SKY/WX    TMP DP  RH WIND       PRES   REMARKS
BATESVILLE *+    N/A    N/A N/A N/A MISG        N/A
BEDFORD +      CLOUDY    52  48  87 SW7       30.01S
BLOOMINGTON    CLOUDY    51  49  92 S9        29.99F FOG
FRENCH LICK *+ CLOUDY    52 N/A N/A S6        30.02F
MADISON *+     CLOUDY    54  46  76 S10       30.05F
NORTH VERNON + CLOUDY    52  46  82 S9        30.02F
SEYMOUR +      CLOUDY    54  46  76 S8        30.02F

$$




USA.gov is the U.S. government's official web portal to all federal, state and local government web resources and services.